Starlink 5539

operational
NORAD ID: 55747 Int'l Des: 2023-028 Owner: SPXS Country: US Constellation: starlink
LEOCIRCULAR

Starlink 5539について

説明を読み込み中...

リアルタイム位置

3D地球を読み込み中...

次回通過

高度履歴

Altitude vs Time

uPlot chart will show altitude changes over time

軌道要素

1 55747U 23028G 25306.14553680 -.00000952 00000-0 -72007-4 0 9999
2 55747 70.0010 206.1039 0002133 275.5625 84.5291 14.98314817146938
Epoch: Nov 2, 2025 • Age: 29 hours

現在のステータス

高度 584.0 km
速度 7.57 km/s
衛星直下点 63.96°N, 160.2°E
打ち上げ日 Mar 3, 2023
運用期間 2.6 years
タイプ internet

技術仕様

分類 Payload
質量 305.00 kg
乾燥質量 290.00 kg
総質量 305.00 kg
長さ 0.20 m
直径 2.80 m
スパン 9.00 m
形状 Box + pan
製造者 SPXS
バスタイプ Starlink
フェーズステータス In Orbit
所有者/国 SPXS/US

大規模コンステレーション

Loading constellations...